Location: Plainartige
(45.6866°N, 1.7993°E)
Time: 02:59:25
(UTC+00:00)

MOZHAYETS 4 - Visible Passes

Search period start: 26 June 2022 00:00
Search period end: 06 July 2022 00:00
Orbit: 660 x 679 km, 98.2° (Epoch: 25 June)

Date Brightness Start Highest point End Pass type
(mag) Time Alt. Az. Time Alt. Az. Time Alt. Az.
26 Jun 9.0 01:32:17 10° SE 01:36:35 40° ENE 01:40:54 10° N visible
26 Jun 9.0 03:10:04 10° SSW 03:13:47 24° W 03:17:32 10° NW visible
27 Jun 10.6 00:31:19 10° ENE 00:32:42 11° ENE 00:34:05 10° NE visible
27 Jun 7.8 02:04:40 12° SSE 02:09:00 82° ENE 02:13:39 10° NNW visible
28 Jun 10.0 01:01:22 10° ESE 01:04:49 21° ENE 01:08:16 10° NNE visible
28 Jun 8.0 02:37:36 13° S 02:41:35 48° W 02:46:03 10° NNW visible
29 Jun 8.9 01:32:47 10° SE 01:37:05 40° ENE 01:41:24 10° N visible
29 Jun 9.0 03:10:35 10° SSW 03:14:18 24° W 03:18:01 10° NW visible
30 Jun 10.6 00:31:48 10° ENE 00:33:11 11° ENE 00:34:36 10° NE visible
30 Jun 7.8 02:05:15 12° SSE 02:09:30 83° ENE 02:14:08 10° NNW visible
01 Jul 10.0 01:01:51 10° ESE 01:05:18 21° ENE 01:08:45 10° NNE visible
01 Jul 8.0 02:38:11 13° S 02:42:04 47° W 02:46:32 10° NNW visible
02 Jul 8.9 01:33:16 10° SE 01:37:34 40° ENE 01:41:52 10° N visible
02 Jul 9.0 03:11:06 10° SSW 03:14:47 23° W 03:18:29 10° NW visible
03 Jul 10.6 00:32:16 10° ENE 00:33:40 11° ENE 00:35:05 10° NE visible
03 Jul 7.8 02:05:50 13° SSE 02:09:59 83° ENE 02:14:37 10° NNW visible
04 Jul 10.0 01:02:20 10° ESE 01:05:47 21° ENE 01:09:14 10° NNE visible
04 Jul 8.1 02:38:47 14° S 02:42:33 47° W 02:47:01 10° NNW visible
05 Jul 8.9 01:33:45 10° SE 01:38:03 41° ENE 01:42:21 10° N visible
05 Jul 9.0 03:11:42 10° SW 03:15:16 23° W 03:18:57 10° NW visible
